| time (UTC) | temp F | wind direction | speed knots | gust knots | rain 1hr in | rain 24hr in | rain mn in | humidity % | barometer mb |
| 20260906191005 | 78 | 346 | 0.9 | 2.6 | 0.00 | 0.00 | 0.00 | 66 | 1019.8 |
| 20260906190508 | 77 | 277 | 0.9 | 2.6 | 0.00 | 0.00 | 0.00 | 67 | 1019.8 |
| 20260906190021 | 78 | 223 | 0.0 | 1.7 | 0.00 | 0.00 | 0.00 | 67 | 1019.8 |
| 20260906185505 | 78 | 227 | 0.0 | 1.7 | 0.00 | 0.00 | 0.00 | 66 | 1019.9 |
| 20260906185001 | 79 | 82 | 0.0 | 1.7 | 0.00 | 0.00 | 0.00 | 64 | 1020.0 |
| 20260906184503 | 79 | 345 | 0.0 | 1.7 | 0.00 | 0.00 | 0.00 | 64 | 1020.1 |
| 20260906184013 | 79 | 31 | 0.0 | 1.7 | 0.00 | 0.00 | 0.00 | 65 | 1020.2 |
| 20260906183505 | 79 | 39 | 0.0 | 1.7 | 0.00 | 0.00 | 0.00 | 64 | 1020.1 |
| 20260906183006 | 79 | 9 | 0.0 | 1.7 | 0.00 | 0.00 | 0.00 | 66 | 1020.1 |
| 20260906182507 | 78 | 65 | 0.0 | 1.7 | 0.00 | 0.00 | 0.00 | 63 | 1020.1 |
| 20260906182002 | 78 | 283 | 0.0 | 1.7 | 0.00 | 0.00 | 0.00 | 64 | 1020.1 |
| 20260906181506 | 78 | 221 | 0.0 | 1.7 | 0.00 | 0.00 | 0.00 | 65 | 1020.2 |
| 20260906181009 | 78 | 188 | 0.0 | 5.2 | 0.00 | 0.00 | 0.00 | 65 | 1020.2 |
| 20260906180510 | 78 | 84 | 1.7 | 5.2 | 0.00 | 0.00 | 0.00 | 63 | 1020.2 |
| 20260906180002 | 78 | 124 | 1.7 | 5.2 | 0.00 | 0.00 | 0.00 | 63 | 1020.3 |
| 20260906175506 | 78 | 98 | 0.0 | 2.6 | 0.00 | 0.00 | 0.00 | 65 | 1020.3 |
| 20260906175013 | 79 | 191 | 0.0 | 2.6 | 0.00 | 0.00 | 0.00 | 64 | 1020.3 |
| 20260906174505 | 78 | 152 | 0.0 | 2.6 | 0.00 | 0.00 | 0.00 | 66 | 1020.3 |
| 20260906174002 | 78 | 72 | 0.0 | 4.3 | 0.00 | 0.00 | 0.00 | 68 | 1020.4 |
| 20260906173506 | 78 | 155 | 1.7 | 4.3 | 0.00 | 0.00 | 0.00 | 64 | 1020.4 |
| 20260906173006 | 78 | 343 | 0.0 | 1.7 | 0.00 | 0.00 | 0.00 | 64 | 1020.4 |
| 20260906172502 | 77 | 105 | 0.0 | 4.3 | 0.00 | 0.00 | 0.00 | 65 | 1020.5 |
| 20260906172005 | 78 | 142 | 0.9 | 4.3 | 0.00 | 0.00 | 0.00 | 63 | 1020.5 |
| 20260906171510 | 77 | 298 | 0.0 | 2.6 | 0.00 | 0.00 | 0.00 | 66 | 1020.5 |
| 20260906171002 | 76 | 30 | 0.0 | 3.5 | 0.00 | 0.00 | 0.00 | 68 | 1020.5 |
| 20260906170509 | 75 | 119 | 0.0 | 6.1 | 0.00 | 0.00 | 0.00 | 67 | 1020.6 |
| 20260906170016 | 75 | 28 | 0.9 | 6.1 | 0.00 | 0.00 | 0.00 | 67 | 1020.6 |
| 20260906165512 | 75 | 140 | 0.9 | 4.3 | 0.00 | 0.00 | 0.00 | 69 | 1020.6 |
| 20260906165007 | 74 | 333 | 0.0 | 3.5 | 0.00 | 0.00 | 0.00 | 71 | 1020.6 |
| 20260906164511 | 74 | 121 | 0.9 | 3.5 | 0.00 | 0.00 | 0.00 | 72 | 1020.6 |
| 20260906164010 | 74 | 126 | 0.9 | 3.5 | 0.00 | 0.00 | 0.00 | 70 | 1020.6 |
| 20260906163502 | 74 | 100 | 1.7 | 4.3 | 0.00 | 0.00 | 0.00 | 69 | 1020.7 |
| 20260906163003 | 74 | 126 | 0.9 | 4.3 | 0.00 | 0.00 | 0.00 | 69 | 1020.6 |
| 20260906162503 | 74 | 129 | 0.0 | 3.5 | 0.00 | 0.00 | 0.00 | 71 | 1020.7 |
| 20260906162006 | 74 | 165 | 0.9 | 5.2 | 0.00 | 0.00 | 0.00 | 71 | 1020.6 |
| 20260906161504 | 74 | 149 | 2.6 | 5.2 | 0.00 | 0.00 | 0.00 | 70 | 1020.7 |
| 20260906161007 | 74 | 117 | 1.7 | 5.2 | 0.00 | 0.00 | 0.00 | 70 | 1020.7 |
| 20260906160507 | 74 | 5 | 0.9 | 3.5 | 0.00 | 0.00 | 0.00 | 71 | 1020.7 |
| 20260906160013 | 74 | 96 | 1.7 | 5.2 | 0.00 | 0.00 | 0.00 | 70 | 1020.6 |
| 20260906155508 | 73 | 130 | 0.0 | 5.2 | 0.00 | 0.00 | 0.00 | 72 | 1020.6 |
| 20260906155013 | 73 | 147 | 0.0 | 4.3 | 0.00 | 0.00 | 0.00 | 70 | 1020.6 |
| 20260906154516 | 73 | 64 | 1.7 | 4.3 | 0.00 | 0.00 | 0.00 | 71 | 1020.6 |
| 20260906154002 | 73 | 125 | 0.0 | 5.2 | 0.00 | 0.00 | 0.00 | 73 | 1020.7 |
| 20260906153506 | 73 | 169 | 0.9 | 4.3 | 0.00 | 0.00 | 0.00 | 73 | 1020.7 |
| 20260906153019 | 72 | 156 | 1.7 | 3.5 | 0.00 | 0.00 | 0.00 | 72 | 1020.6 |
| 20260906152518 | 72 | 123 | 0.0 | 3.5 | 0.00 | 0.00 | 0.00 | 73 | 1020.7 |
| 20260906152006 | 72 | 153 | 0.9 | 6.1 | 0.00 | 0.00 | 0.00 | 74 | 1020.7 |
| 20260906151516 | 72 | 150 | 1.7 | 6.1 | 0.00 | 0.00 | 0.00 | 73 | 1020.6 |
| 20260906151005 | 71 | 136 | 0.0 | 3.5 | 0.00 | 0.00 | 0.00 | 74 | 1020.7 |
| 20260906150508 | 71 | 78 | 0.0 | 3.5 | 0.00 | 0.00 | 0.00 | 76 | 1020.7 |
| 20260906150008 | 70 | 30 | 0.0 | 6.1 | 0.00 | 0.00 | 0.00 | 77 | 1020.7 |
| 20260906145506 | 69 | 97 | 0.0 | 6.1 | 0.00 | 0.00 | 0.00 | 76 | 1020.7 |
| 20260906145010 | 69 | 138 | 1.7 | 3.5 | 0.00 | 0.00 | 0.00 | 76 | 1020.7 |
| 20260906144514 | 69 | 116 | 0.9 | 5.2 | 0.00 | 0.00 | 0.00 | 77 | 1020.7 |
| 20260906144009 | 68 | 120 | 1.7 | 4.3 | 0.00 | 0.00 | 0.00 | 78 | 1020.7 |
| 20260906143511 | 68 | 137 | 0.9 | 4.3 | 0.00 | 0.00 | 0.00 | 79 | 1020.7 |
| 20260906143009 | 67 | 123 | 0.0 | 3.5 | 0.00 | 0.00 | 0.00 | 80 | 1020.6 |
| 20260906142507 | 67 | 117 | 1.7 | 5.2 | 0.00 | 0.00 | 0.00 | 82 | 1020.7 |
| 20260906142012 | 66 | 71 | 1.7 | 5.2 | 0.00 | 0.00 | 0.00 | 81 | 1020.8 |
| 20260906141526 | 67 | 123 | 1.7 | 4.3 | 0.00 | 0.00 | 0.00 | 81 | 1020.7 |
| 20260906141007 | 66 | 134 | 1.7 | 3.5 | 0.00 | 0.00 | 0.00 | 82 | 1020.8 |
| 20260906140511 | 66 | 130 | 0.9 | 3.5 | 0.00 | 0.00 | 0.00 | 82 | 1020.9 |
| 20260906140012 | 66 | 109 | 0.0 | 1.7 | 0.00 | 0.00 | 0.00 | 83 | 1020.9 |
| 20260906135506 | 65 | 78 | 0.0 | 3.5 | 0.00 | 0.00 | 0.00 | 84 | 1020.8 |
| 20260906135006 | 65 | 77 | 0.0 | 3.5 | 0.00 | 0.00 | 0.00 | 86 | 1020.8 |
| 20260906134514 | 64 | 153 | 1.7 | 3.5 | 0.00 | 0.00 | 0.00 | 84 | 1020.8 |
| 20260906134016 | 64 | 120 | 0.9 | 1.7 | 0.00 | 0.00 | 0.00 | 85 | 1020.9 |
| 20260906133507 | 64 | 161 | 0.0 | 1.7 | 0.00 | 0.00 | 0.00 | 86 | 1020.9 |
| 20260906133017 | 64 | 94 | 0.0 | 1.7 | 0.00 | 0.00 | 0.00 | 87 | 1020.9 |
| 20260906132512 | 63 | 142 | 0.0 | 1.7 | 0.00 | 0.00 | 0.00 | 87 | 1020.9 |
| 20260906132003 | 63 | 85 | 0.0 | 1.7 | 0.00 | 0.00 | 0.00 | 89 | 1020.9 |
| 20260906131521 | 62 | 31 | 0.0 | 1.7 | 0.00 | 0.00 | 0.00 | 89 | 1021.0 |
| 20260906131011 | 62 | 31 | 0.0 | 1.7 | 0.00 | 0.00 | 0.00 | 89 | 1021.0 |
| 20260906130704 | 62 | 31 | 0.0 | 0.9 | 0.00 | 0.00 | 0.00 | 90 | 1020.9 |
| 20260906130657 | 61 | 140 | 0.0 | 0.0 | 0.00 | 0.00 | 0.00 | 91 | 1020.8 |
| 20260906125015 | 60 | 140 | 0.0 | 1.7 | 0.00 | 0.00 | 0.00 | 94 | 1020.8 |
| 20260906124511 | 59 | 121 | 0.0 | 0.9 | 0.00 | 0.00 | 0.00 | 94 | 1020.7 |
| 20260906124006 | 59 | 121 | 0.0 | 0.9 | 0.00 | 0.00 | 0.00 | 94 | 1020.7 |
| 20260906123507 | 58 | 133 | 0.0 | 1.7 | 0.00 | 0.00 | 0.00 | 94 | 1020.7 |
| 20260906123016 | 58 | 133 | 0.0 | 1.7 | 0.00 | 0.00 | 0.00 | 94 | 1020.7 |
| 20260906122507 | 58 | 134 | 0.0 | 1.7 | 0.00 | 0.00 | 0.00 | 94 | 1020.7 |
| 20260906122013 | 58 | 131 | 0.0 | 1.7 | 0.00 | 0.00 | 0.00 | 94 | 1020.7 |
| 20260906121522 | 58 | 122 | 0.0 | 1.7 | 0.00 | 0.00 | 0.00 | 94 | 1020.7 |
| 20260906121016 | 58 | 141 | 0.0 | 1.7 | 0.00 | 0.00 | 0.00 | 94 | 1020.6 |
| 20260906120510 | 58 | 83 | 0.0 | 0.0 | 0.00 | 0.00 | 0.00 | 94 | 1020.6 |
| 20260906120023 | 58 | 108 | 0.0 | 0.0 | 0.00 | 0.00 | 0.00 | 94 | 1020.5 |
| 20260906115514 | 58 | 116 | 0.0 | 1.7 | 0.00 | 0.00 | 0.00 | 94 | 1020.4 |
| 20260906115007 | 58 | 116 | 0.0 | 1.7 | 0.00 | 0.00 | 0.00 | 94 | 1020.3 |
| 20260906114519 | 58 | 116 | 0.0 | 1.7 | 0.00 | 0.00 | 0.00 | 94 | 1020.3 |
| 20260906114017 | 58 | 123 | 0.0 | 0.9 | 0.00 | 0.00 | 0.00 | 94 | 1020.2 |
| 20260906113517 | 58 | 126 | 0.0 | 1.7 | 0.00 | 0.00 | 0.00 | 94 | 1020.2 |
| 20260906113012 | 58 | 87 | 0.0 | 1.7 | 0.00 | 0.00 | 0.00 | 94 | 1020.3 |
| 20260906112507 | 58 | 107 | 0.0 | 1.7 | 0.00 | 0.00 | 0.00 | 94 | 1020.4 |
| 20260906112011 | 58 | 103 | 0.0 | 1.7 | 0.00 | 0.00 | 0.00 | 94 | 1020.3 |
| 20260906111513 | 58 | 153 | 0.0 | 1.7 | 0.00 | 0.00 | 0.00 | 94 | 1020.3 |
| 20260906111012 | 58 | 100 | 0.0 | 1.7 | 0.00 | 0.00 | 0.00 | 94 | 1020.4 |
| 20260906110515 | 58 | 104 | 0.0 | 1.7 | 0.00 | 0.00 | 0.00 | 94 | 1020.3 |
| 20260906110219 | 58 | 101 | 0.0 | 0.0 | 0.00 | 0.00 | 0.00 | 94 | 1020.2 |
| 20260906110209 | 58 | 82 | 0.0 | 1.7 | 0.00 | 0.00 | 0.00 | 94 | 1020.2 |
| 20260906110202 | 58 | 113 | 0.0 | 1.7 | 0.00 | 0.00 | 0.00 | 94 | 1020.1 |
| 20260906110158 | 58 | 66 | 0.0 | 1.7 | 0.00 | 0.00 | 0.00 | 94 | 1020.1 |
| 20260906110152 | 58 | 136 | 0.0 | 1.7 | 0.00 | 0.00 | 0.00 | 94 | 1020.0 |
| 20260906103008 | 58 | 127 | 0.0 | 1.7 | 0.00 | 0.00 | 0.00 | 94 | 1020.1 |
| 20260906102503 | 58 | 112 | 0.0 | 1.7 | 0.00 | 0.00 | 0.00 | 94 | 1020.1 |
| 20260906102006 | 58 | 153 | 0.0 | 0.9 | 0.00 | 0.00 | 0.00 | 94 | 1020.1 |
| 20260906101514 | 58 | 155 | 0.0 | 1.7 | 0.00 | 0.00 | 0.00 | 94 | 1020.0 |
| 20260906101006 | 58 | 53 | 0.0 | 1.7 | 0.00 | 0.00 | 0.00 | 94 | 1020.0 |
| 20260906100508 | 58 | 140 | 0.0 | 1.7 | 0.00 | 0.00 | 0.00 | 94 | 1020.0 |
| 20260906100019 | 58 | 125 | 0.0 | 1.7 | 0.00 | 0.00 | 0.00 | 94 | 1020.1 |
| 20260906095513 | 58 | 132 | 0.0 | 1.7 | 0.00 | 0.00 | 0.00 | 94 | 1020.1 |
| 20260906095006 | 58 | 48 | 0.0 | 0.9 | 0.00 | 0.00 | 0.00 | 94 | 1020.1 |
| 20260906094518 | 57 | 123 | 0.0 | 0.0 | 0.00 | 0.00 | 0.00 | 94 | 1020.1 |
| 20260906094012 | 57 | 123 | 0.0 | 0.0 | 0.00 | 0.00 | 0.00 | 94 | 1020.1 |
| 20260906093502 | 57 | 141 | 0.0 | 0.0 | 0.00 | 0.00 | 0.00 | 94 | 1020.1 |
| 20260906093009 | 57 | 144 | 0.0 | 0.0 | 0.00 | 0.00 | 0.00 | 94 | 1020.1 |
| 20260906092514 | 57 | 141 | 0.0 | 1.7 | 0.00 | 0.00 | 0.00 | 94 | 1020.0 |
| 20260906092011 | 57 | 138 | 0.0 | 1.7 | 0.00 | 0.00 | 0.00 | 94 | 1019.9 |
| 20260906091507 | 57 | 140 | 0.0 | 1.7 | 0.00 | 0.00 | 0.00 | 94 | 1019.9 |
| 20260906091008 | 57 | 90 | 0.0 | 0.0 | 0.00 | 0.00 | 0.00 | 94 | 1019.9 |
| 20260906090512 | 56 | 88 | 0.0 | 0.0 | 0.00 | 0.00 | 0.00 | 94 | 1019.9 |
| 20260906090009 | 56 | 78 | 0.0 | 0.0 | 0.00 | 0.00 | 0.00 | 93 | 1020.0 |
| 20260906085509 | 56 | 78 | 0.0 | 0.0 | 0.00 | 0.00 | 0.00 | 93 | 1020.0 |
| 20260906085011 | 56 | 78 | 0.0 | 0.0 | 0.00 | 0.00 | 0.00 | 93 | 1020.1 |
| 20260906084521 | 56 | 78 | 0.0 | 0.0 | 0.00 | 0.00 | 0.00 | 93 | 1020.1 |
| 20260906084008 | 56 | 78 | 0.0 | 0.0 | 0.00 | 0.00 | 0.00 | 94 | 1020.1 |
| 20260906083508 | 56 | 80 | 0.0 | 0.9 | 0.00 | 0.00 | 0.00 | 93 | 1020.0 |
| 20260906083025 | 56 | 80 | 0.0 | 0.9 | 0.00 | 0.00 | 0.00 | 93 | 1019.9 |
| 20260906082510 | 56 | 115 | 0.0 | 0.0 | 0.00 | 0.00 | 0.00 | 93 | 1020.0 |
| 20260906082008 | 55 | 119 | 0.0 | 0.0 | 0.00 | 0.00 | 0.00 | 93 | 1019.8 |
| 20260906081507 | 55 | 128 | 0.0 | 0.0 | 0.00 | 0.00 | 0.00 | 92 | 1019.8 |
| 20260906081007 | 55 | 128 | 0.0 | 0.0 | 0.00 | 0.00 | 0.00 | 92 | 1019.7 |
| 20260906080509 | 55 | 128 | 0.0 | 0.0 | 0.00 | 0.00 | 0.00 | 91 | 1019.8 |
| 20260906080014 | 56 | 128 | 0.0 | 0.0 | 0.00 | 0.00 | 0.00 | 92 | 1019.8 |
| 20260906075514 | 56 | 128 | 0.0 | 0.0 | 0.00 | 0.00 | 0.00 | 92 | 1019.8 |
| 20260906075004 | 56 | 128 | 0.0 | 0.0 | 0.00 | 0.00 | 0.00 | 92 | 1019.7 |
| 20260906074513 | 56 | 128 | 0.0 | 0.0 | 0.00 | 0.00 | 0.00 | 92 | 1019.7 |
| 20260906074012 | 56 | 132 | 0.0 | 0.0 | 0.00 | 0.00 | 0.00 | 91 | 1019.8 |
| 20260906073511 | 56 | 132 | 0.0 | 0.0 | 0.00 | 0.00 | 0.00 | 90 | 1019.9 |
| 20260906073129 | 57 | 132 | 0.0 | 0.0 | 0.00 | 0.00 | 0.00 | 91 | 1019.8 |
| 20260906070517 | 57 | 148 | 0.0 | 0.0 | 0.00 | 0.00 | 0.00 | 92 | 1019.9 |
| 20260906070007 | 57 | 161 | 0.0 | 0.0 | 0.00 | 0.00 | 0.00 | 91 | 1019.9 |
| 20260906065507 | 57 | 161 | 0.0 | 0.0 | 0.00 | 0.00 | 0.00 | 91 | 1019.9 |
| 20260906065005 | 58 | 162 | 0.0 | 0.0 | 0.00 | 0.00 | 0.00 | 91 | 1019.9 |
| 20260906064517 | 58 | 162 | 0.0 | 1.7 | 0.00 | 0.00 | 0.00 | 93 | 1020.0 |
| 20260906064011 | 58 | 162 | 0.0 | 1.7 | 0.00 | 0.00 | 0.00 | 93 | 1019.9 |
| 20260906063510 | 58 | 77 | 0.0 | 0.0 | 0.00 | 0.00 | 0.00 | 92 | 1019.8 |
| 20260906063017 | 58 | 77 | 0.0 | 0.0 | 0.00 | 0.00 | 0.00 | 92 | 1019.8 |
| 20260906062511 | 58 | 77 | 0.0 | 0.0 | 0.00 | 0.00 | 0.00 | 92 | 1019.8 |
| 20260906062006 | 58 | 77 | 0.0 | 0.0 | 0.00 | 0.00 | 0.00 | 92 | 1019.8 |
| 20260906061518 | 58 | 77 | 0.0 | 0.0 | 0.00 | 0.00 | 0.00 | 92 | 1019.7 |
| 20260906061014 | 58 | 77 | 0.0 | 0.0 | 0.00 | 0.00 | 0.00 | 92 | 1019.6 |
| 20260906060519 | 58 | 77 | 0.0 | 0.0 | 0.00 | 0.00 | 0.00 | 92 | 1019.6 |
| 20260906060021 | 58 | 77 | 0.0 | 0.0 | 0.00 | 0.00 | 0.00 | 92 | 1019.6 |
| 20260906055515 | 58 | 77 | 0.0 | 0.0 | 0.00 | 0.00 | 0.00 | 92 | 1019.5 |
| 20260906055015 | 58 | 77 | 0.0 | 0.0 | 0.00 | 0.00 | 0.00 | 92 | 1019.4 |
| 20260906054508 | 59 | 78 | 0.0 | 0.0 | 0.00 | 0.00 | 0.00 | 92 | 1019.4 |
| 20260906054008 | 59 | 78 | 0.0 | 0.0 | 0.00 | 0.00 | 0.00 | 91 | 1019.4 |
| 20260906053509 | 59 | 78 | 0.0 | 0.0 | 0.00 | 0.00 | 0.00 | 91 | 1019.3 |
| 20260906053225 | 59 | 78 | 0.0 | 2.6 | 0.00 | 0.00 | 0.00 | 91 | 1019.3 |
| 20260906053222 | 59 | 117 | 0.0 | 0.0 | 0.00 | 0.00 | 0.00 | 92 | 1019.4 |
| 20260906050028 | 59 | 118 | 0.0 | 0.0 | 0.00 | 0.00 | 0.00 | 92 | 1019.3 |
| 20260906045515 | 59 | 119 | 0.0 | 0.0 | 0.00 | 0.00 | 0.00 | 92 | 1019.3 |
| 20260906045010 | 59 | 119 | 0.0 | 0.0 | 0.00 | 0.00 | 0.00 | 92 | 1019.2 |
| 20260906044507 | 59 | 120 | 0.0 | 0.0 | 0.00 | 0.00 | 0.00 | 92 | 1019.2 |
| 20260906044004 | 59 | 118 | 0.0 | 0.0 | 0.00 | 0.00 | 0.00 | 92 | 1019.2 |
| 20260906043507 | 59 | 118 | 0.0 | 0.0 | 0.00 | 0.00 | 0.00 | 92 | 1019.2 |
| 20260906043013 | 59 | 118 | 0.0 | 0.0 | 0.00 | 0.00 | 0.00 | 92 | 1019.3 |
| 20260906042509 | 59 | 119 | 0.0 | 0.0 | 0.00 | 0.00 | 0.00 | 91 | 1019.3 |
| 20260906042003 | 59 | 119 | 0.0 | 0.0 | 0.00 | 0.00 | 0.00 | 91 | 1019.3 |
| 20260906041514 | 60 | 119 | 0.0 | 0.0 | 0.00 | 0.00 | 0.00 | 90 | 1019.4 |
| 20260906041014 | 60 | 119 | 0.0 | 0.0 | 0.00 | 0.00 | 0.00 | 91 | 1019.4 |
| 20260906040503 | 60 | 119 | 0.0 | 0.0 | 0.00 | 0.00 | 0.00 | 92 | 1019.3 |
| 20260906040012 | 60 | 119 | 0.0 | 0.0 | 0.00 | 0.00 | 0.00 | 92 | 1019.3 |
| 20260906035511 | 60 | 119 | 0.0 | 0.9 | 0.00 | 0.00 | 0.00 | 91 | 1019.3 |
| 20260906035015 | 60 | 119 | 0.0 | 0.9 | 0.00 | 0.00 | 0.00 | 92 | 1019.3 |
| 20260906034505 | 60 | 118 | 0.0 | 1.7 | 0.00 | 0.00 | 0.00 | 92 | 1019.3 |
| 20260906034004 | 60 | 118 | 0.0 | 1.7 | 0.00 | 0.00 | 0.00 | 92 | 1019.2 |
| 20260906033504 | 59 | 148 | 0.0 | 0.0 | 0.00 | 0.00 | 0.00 | 91 | 1019.2 |
| 20260906033004 | 59 | 148 | 0.0 | 0.0 | 0.00 | 0.00 | 0.00 | 92 | 1019.2 |
| 20260906032507 | 59 | 148 | 0.0 | 0.0 | 0.00 | 0.00 | 0.00 | 91 | 1019.2 |
| 20260906032009 | 59 | 148 | 0.0 | 0.0 | 0.00 | 0.00 | 0.00 | 90 | 1019.2 |
| 20260906031516 | 59 | 149 | 0.0 | 0.0 | 0.00 | 0.00 | 0.00 | 90 | 1019.2 |
| 20260906031008 | 59 | 150 | 0.0 | 0.0 | 0.00 | 0.00 | 0.00 | 89 | 1019.1 |
| 20260906030512 | 59 | 150 | 0.0 | 0.9 | 0.00 | 0.00 | 0.00 | 89 | 1019.1 |
| 20260906030018 | 59 | 144 | 0.0 | 0.9 | 0.00 | 0.00 | 0.00 | 89 | 1019.1 |
| 20260906025505 | 60 | 121 | 0.0 | 1.7 | 0.00 | 0.00 | 0.00 | 89 | 1018.9 |
| 20260906025008 | 60 | 121 | 0.0 | 1.7 | 0.00 | 0.00 | 0.00 | 90 | 1018.9 |
| 20260906024520 | 60 | 93 | 0.0 | 0.0 | 0.00 | 0.00 | 0.00 | 88 | 1018.9 |
| 20260906024015 | 60 | 93 | 0.0 | 0.0 | 0.00 | 0.00 | 0.00 | 88 | 1018.9 |
| 20260906023507 | 60 | 93 | 0.0 | 0.0 | 0.00 | 0.00 | 0.00 | 88 | 1018.9 |
| 20260906023007 | 60 | 93 | 0.0 | 0.0 | 0.00 | 0.00 | 0.00 | 87 | 1018.9 |
| 20260906022503 | 60 | 93 | 0.0 | 0.0 | 0.00 | 0.00 | 0.00 | 87 | 1018.9 |
| 20260906022019 | 60 | 93 | 0.0 | 0.0 | 0.00 | 0.00 | 0.00 | 86 | 1018.8 |
| 20260906021516 | 61 | 93 | 0.0 | 0.0 | 0.00 | 0.00 | 0.00 | 86 | 1018.8 |
| 20260906021011 | 61 | 93 | 0.0 | 0.0 | 0.00 | 0.00 | 0.00 | 85 | 1018.8 |
| 20260906020510 | 61 | 74 | 0.0 | 0.0 | 0.00 | 0.00 | 0.00 | 85 | 1018.8 |
| 20260906020011 | 61 | 74 | 0.0 | 0.0 | 0.00 | 0.00 | 0.00 | 85 | 1018.8 |
| 20260906015510 | 61 | 74 | 0.0 | 0.0 | 0.00 | 0.00 | 0.00 | 84 | 1018.8 |
| 20260906015012 | 61 | 75 | 0.0 | 0.9 | 0.00 | 0.00 | 0.00 | 84 | 1018.9 |
| 20260906014524 | 62 | 77 | 0.0 | 0.9 | 0.00 | 0.00 | 0.00 | 84 | 1018.8 |
| 20260906014009 | 62 | 77 | 0.0 | 0.0 | 0.00 | 0.00 | 0.00 | 84 | 1018.7 |
| 20260906013515 | 62 | 64 | 0.0 | 0.9 | 0.00 | 0.00 | 0.00 | 83 | 1018.7 |
| 20260906013024 | 62 | 61 | 0.0 | 0.9 | 0.00 | 0.00 | 0.00 | 82 | 1018.6 |
| 20260906012507 | 62 | 86 | 0.0 | 1.7 | 0.00 | 0.00 | 0.00 | 82 | 1018.6 |
| 20260906012014 | 63 | 86 | 0.0 | 1.7 | 0.00 | 0.00 | 0.00 | 82 | 1018.6 |
| 20260906011510 | 63 | 124 | 0.0 | 0.0 | 0.00 | 0.00 | 0.00 | 82 | 1018.5 |
| 20260906011006 | 63 | 124 | 0.0 | 0.0 | 0.00 | 0.00 | 0.00 | 81 | 1018.5 |
| 20260906010507 | 63 | 124 | 0.0 | 1.7 | 0.00 | 0.00 | 0.00 | 81 | 1018.4 |
| 20260906010011 | 63 | 125 | 0.0 | 1.7 | 0.00 | 0.00 | 0.00 | 81 | 1018.4 |
| 20260906005508 | 63 | 124 | 0.0 | 1.7 | 0.00 | 0.00 | 0.00 | 82 | 1018.4 |
| 20260906005010 | 64 | 136 | 0.0 | 0.0 | 0.00 | 0.00 | 0.00 | 83 | 1018.4 |
| 20260906004513 | 64 | 136 | 0.0 | 0.0 | 0.00 | 0.00 | 0.00 | 81 | 1018.5 |
| 20260906004012 | 64 | 138 | 0.0 | 0.0 | 0.00 | 0.00 | 0.00 | 83 | 1018.4 |
| 20260906003516 | 64 | 149 | 0.0 | 0.0 | 0.00 | 0.00 | 0.00 | 83 | 1018.4 |
| 20260906003013 | 65 | 142 | 0.0 | 0.0 | 0.00 | 0.00 | 0.00 | 83 | 1018.5 |
| 20260906002513 | 65 | 142 | 0.0 | 0.0 | 0.00 | 0.00 | 0.00 | 83 | 1018.5 |
| 20260906002016 | 65 | 142 | 0.0 | 0.0 | 0.00 | 0.00 | 0.00 | 82 | 1018.5 |
| 20260906001508 | 66 | 142 | 0.0 | 0.0 | 0.00 | 0.00 | 0.00 | 82 | 1018.5 |
| 20260906001011 | 66 | 142 | 0.0 | 0.0 | 0.00 | 0.00 | 0.00 | 82 | 1018.5 |
| 20260906000518 | 67 | 142 | 0.0 | 0.0 | 0.00 | 0.00 | 0.00 | 81 | 1018.5 |
| 20260906000010 | 67 | 142 | 0.0 | 0.0 | 0.00 | 0.00 | 0.00 | 81 | 1018.5 |
| 20260905235508 | 67 | 143 | 0.0 | 0.0 | 0.00 | 0.00 | 0.00 | 79 | 1018.5 |
| 20260905235010 | 67 | 143 | 0.0 | 0.0 | 0.00 | 0.00 | 0.00 | 80 | 1018.5 |
| 20260905234514 | 68 | 143 | 0.0 | 0.0 | 0.00 | 0.00 | 0.00 | 78 | 1018.5 |
| 20260905234011 | 68 | 143 | 0.0 | 0.0 | 0.00 | 0.00 | 0.00 | 78 | 1018.6 |
| 20260905233512 | 68 | 143 | 0.0 | 0.0 | 0.00 | 0.00 | 0.00 | 77 | 1018.5 |
| 20260905233023 | 69 | 143 | 0.0 | 1.7 | 0.00 | 0.00 | 0.00 | 76 | 1018.5 |
| 20260905232515 | 69 | 143 | 0.0 | 1.7 | 0.00 | 0.00 | 0.00 | 75 | 1018.6 |
| 20260905232011 | 69 | 105 | 0.0 | 0.0 | 0.00 | 0.00 | 0.00 | 76 | 1018.5 |
| 20260905231520 | 69 | 105 | 0.0 | 0.0 | 0.00 | 0.00 | 0.00 | 74 | 1018.5 |
| 20260905231015 | 69 | 105 | 0.0 | 0.0 | 0.00 | 0.00 | 0.00 | 75 | 1018.6 |
| 20260905230515 | 69 | 105 | 0.0 | 0.0 | 0.00 | 0.00 | 0.00 | 73 | 1018.6 |
| 20260905230019 | 69 | 105 | 0.0 | 0.0 | 0.00 | 0.00 | 0.00 | 74 | 1018.6 |
| 20260905225512 | 70 | 105 | 0.0 | 0.0 | 0.00 | 0.00 | 0.00 | 74 | 1018.7 |
| 20260905225014 | 70 | 136 | 0.0 | 1.7 | 0.00 | 0.00 | 0.00 | 72 | 1018.7 |
| 20260905224518 | 70 | 140 | 0.0 | 1.7 | 0.00 | 0.00 | 0.00 | 71 | 1018.6 |
| 20260905224009 | 70 | 178 | 0.0 | 1.7 | 0.00 | 0.00 | 0.00 | 70 | 1018.8 |
| 20260905223513 | 70 | 184 | 0.0 | 1.7 | 0.00 | 0.00 | 0.00 | 70 | 1018.6 |
| 20260905223018 | 70 | 256 | 0.0 | 1.7 | 0.00 | 0.00 | 0.00 | 71 | 1018.7 |
| 20260905222510 | 70 | 15 | 0.0 | 1.7 | 0.00 | 0.00 | 0.00 | 70 | 1018.7 |
| 20260905222013 | 70 | 15 | 0.0 | 1.7 | 0.00 | 0.00 | 0.00 | 70 | 1018.8 |
| 20260905221533 | 71 | 16 | 0.0 | 1.7 | 0.00 | 0.00 | 0.00 | 70 | 1018.8 |
| 20260905221009 | 71 | 350 | 0.0 | 1.7 | 0.00 | 0.00 | 0.00 | 69 | 1018.6 |
| 20260905220515 | 71 | 155 | 0.0 | 1.7 | 0.00 | 0.00 | 0.00 | 67 | 1018.5 |
| 20260905220030 | 72 | 120 | 0.0 | 1.7 | 0.00 | 0.00 | 0.00 | 68 | 1018.5 |
| 20260905215516 | 72 | 175 | 0.0 | 1.7 | 0.00 | 0.00 | 0.00 | 67 | 1018.7 |
| 20260905215009 | 72 | 345 | 0.0 | 0.9 | 0.00 | 0.00 | 0.00 | 67 | 1018.7 |
| 20260905214528 | 72 | 146 | 0.0 | 0.0 | 0.00 | 0.00 | 0.00 | 66 | 1018.8 |
| 20260905214018 | 72 | 69 | 0.0 | 1.7 | 0.00 | 0.00 | 0.00 | 65 | 1018.8 |
| 20260905213508 | 72 | 86 | 0.0 | 1.7 | 0.00 | 0.00 | 0.00 | 65 | 1018.8 |
| 20260905213015 | 73 | 57 | 0.0 | 1.7 | 0.00 | 0.00 | 0.00 | 65 | 1018.7 |
| 20260905212510 | 73 | 26 | 0.0 | 2.6 | 0.00 | 0.00 | 0.00 | 64 | 1018.5 |
| 20260905212010 | 73 | 69 | 0.0 | 3.5 | 0.00 | 0.00 | 0.00 | 63 | 1018.5 |
| 20260905211520 | 74 | 155 | 0.0 | 3.5 | 0.00 | 0.00 | 0.00 | 63 | 1018.5 |
| 20260905211014 | 75 | 267 | 0.0 | 3.5 | 0.00 | 0.00 | 0.00 | 59 | 1018.7 |
| 20260905210514 | 76 | 59 | 0.9 | 3.5 | 0.00 | 0.00 | 0.00 | 58 | 1018.6 |
| 20260905210021 | 77 | 148 | 0.0 | 1.7 | 0.00 | 0.00 | 0.00 | 57 | 1018.6 |
| 20260905205512 | 77 | 53 | 0.0 | 1.7 | 0.00 | 0.00 | 0.00 | 59 | 1018.8 |
| 20260905205016 | 77 | 333 | 0.0 | 1.7 | 0.00 | 0.00 | 0.00 | 58 | 1018.9 |
| 20260905204527 | 78 | 347 | 0.9 | 1.7 | 0.00 | 0.00 | 0.00 | 57 | 1018.9 |
| 20260905204013 | 78 | 352 | 0.0 | 1.7 | 0.00 | 0.00 | 0.00 | 56 | 1018.9 |
| 20260905203515 | 78 | 347 | 0.0 | 2.6 | 0.00 | 0.00 | 0.00 | 57 | 1018.9 |
| 20260905203028 | 78 | 311 | 0.0 | 2.6 | 0.00 | 0.00 | 0.00 | 56 | 1018.9 |
| 20260905202509 | 78 | 44 | 0.0 | 1.7 | 0.00 | 0.00 | 0.00 | 56 | 1018.9 |
| 20260905202008 | 78 | 40 | 0.0 | 2.6 | 0.00 | 0.00 | 0.00 | 59 | 1018.9 |
| 20260905201521 | 78 | 360 | 0.9 | 2.6 | 0.00 | 0.00 | 0.00 | 57 | 1018.9 |
| 20260905201009 | 78 | 39 | 0.0 | 1.7 | 0.00 | 0.00 | 0.00 | 57 | 1018.9 |
| 20260905200511 | 77 | 350 | 0.0 | 3.5 | 0.00 | 0.00 | 0.00 | 58 | 1018.9 |
| 20260905200023 | 77 | 352 | 0.9 | 3.5 | 0.00 | 0.00 | 0.00 | 58 | 1018.8 |
| 20260905195515 | 77 | 53 | 0.0 | 1.7 | 0.00 | 0.00 | 0.00 | 59 | 1018.8 |
| 20260905195009 | 77 | 313 | 0.0 | 2.6 | 0.00 | 0.00 | 0.00 | 59 | 1018.7 |
| 20260905194503 | 76 | 279 | 0.9 | 2.6 | 0.00 | 0.00 | 0.00 | 59 | 1018.7 |
| 20260905194003 | 77 | 180 | 0.0 | 3.5 | 0.00 | 0.00 | 0.00 | 59 | 1018.7 |
| 20260905193502 | 77 | 15 | 0.9 | 3.5 | 0.00 | 0.00 | 0.00 | 59 | 1018.7 |
| 20260905193011 | 77 | 251 | 0.0 | 2.6 | 0.00 | 0.00 | 0.00 | 60 | 1018.6 |
| 20260905192506 | 77 | 5 | 0.9 | 2.6 | 0.00 | 0.00 | 0.00 | 58 | 1018.7 |
| 20260905192005 | 78 | 186 | 0.0 | 1.7 | 0.00 | 0.00 | 0.00 | 57 | 1018.8 |
| 20260905191509 | 77 | 245 | 0.0 | 2.6 | 0.00 | 0.00 | 0.00 | 60 | 1018.9 |